Location: Cottbus
(51.7000°N, 14.3000°E)
Time: 15:52:01
(UTC+02:00)

ISS - Visible Passes

Search period start: 25 May 2020 00:00
Search period end: 04 June 2020 00:00
Orbit: 417 x 420 km, 51.6° (Epoch: 25 May)

Date Brightness Start Highest point End Pass type
(mag) Time Alt. Az. Time Alt. Az. Time Alt. Az.
25 May -1.5 00:46:41 10° W 00:47:38 15° WSW 00:47:38 15° WSW visible
25 May -3.8 22:21:41 10° W 22:25:03 76° S 22:28:26 10° ESE visible
25 May -2.5 23:58:39 10° W 00:01:21 26° SW 00:01:21 26° SW visible
26 May -3.0 23:10:43 10° W 23:13:52 36° SSW 23:15:06 26° SSE visible
27 May -3.4 22:22:52 10° W 22:26:09 49° SSW 22:28:53 14° SE visible
28 May -1.5 00:00:36 10° WSW 00:01:48 13° SW 00:01:48 13° SW visible
28 May -2.1 23:12:14 10° W 23:14:44 19° SW 23:15:35 18° SSW visible
29 May -2.4 22:24:10 10° W 22:27:04 27° SSW 22:29:25 13° SSE visible
31 May -1.4 22:25:59 10° WSW 22:27:48 14° SW 22:29:35 10° S visible
